Dodge City, KS

12:14 AM CST on January 18, 2018 (GMT -0600)
Dodge City Regional

Weather History for KDDC - August, 2013

Change the Weather History Date:

Thursday, August 29, 2013

  Actual Average Record
Temperature  
Mean Temperature 82 °F -  
Max Temperature 96 °F 90 °F 106 °F (1984)
Min Temperature 69 °F 64 °F 45 °F (1917)
Cooling Degree Days 18    
Growing Degree Days 32 (Base 50)    
Moisture  
Dew Point 59 °F    
Average Humidity 47    
Maximum Humidity 71    
Minimum Humidity 20    
Precipitation  
Precipitation 0.00 in - - ()
Sea Level Pressure  
Sea Level Pressure 29.94 in    
Wind  
Wind Speed 9 mph (South)    
Max Wind Speed 16 mph    
Max Gust Speed 22 mph    
Visibility 10 miles    
Events      
Averages and records for this station are not official NWS values.
T = Trace of Precipitation, MM = Missing Value Source: NWS Daily Summary

Daily Weather History Graph

Daily Weather History Graph

Search for Another Location

Airport or City:

Trip Planner

Search our weather history database for the weather conditions in past years. The results will help you decide how hot, cold, wet, or windy it might be!

Date:

Astronomy

Aug. 29, 2013 Rise Set
Actual Time 7:07 AM CDT 8:13 PM CDT
Civil Twilight 6:40 AM CDT 8:40 PM CDT
Nautical Twilight 6:08 AM CDT 9:12 PM CDT
Astronomical Twilight 5:35 AM CDT 9:45 PM CDT
Moon 1:03 AM CDT (8/29) 3:40 PM CDT (8/29)
Length of Visible Light 13h 59m
Length of Day
13h 05m
Last Quarter, 38% of the Moon is Illuminated
Aug 29
Last Quarter
Sep 5
New
Sep 12
First Quarter
Sep 19
Full
Sep 26
Last Quarter

Hourly Weather History & Observations

Time (CDT) Temp. Heat Index Dew Point Humidity Pressure Visibility Wind Dir Wind Speed Gust Speed Precip Events Conditions
12:52 AM 73.9 °F - 62.1 °F 66% 29.96 in 10.0 mi South 5.8 mph - N/A   Clear
1:52 AM 73.9 °F - 61.0 °F 64% 29.96 in 10.0 mi South 9.2 mph - N/A   Clear
2:52 AM 71.1 °F - 61.0 °F 70% 29.95 in 10.0 mi South 5.8 mph - N/A   Clear
3:52 AM 71.1 °F - 60.1 °F 68% 29.95 in 10.0 mi South 6.9 mph - N/A   Clear
4:52 AM 70.0 °F - 60.1 °F 71% 29.95 in 10.0 mi South 8.1 mph - N/A   Clear
5:52 AM 70.0 °F - 60.1 °F 71% 29.95 in 10.0 mi South 8.1 mph - N/A   Clear
6:52 AM 70.0 °F - 59.0 °F 68% 29.95 in 10.0 mi SSW 8.1 mph - N/A   Clear
7:52 AM 72.0 °F - 59.0 °F 64% 29.96 in 8.0 mi SSW 8.1 mph - N/A   Clear
8:52 AM 77.0 °F - 57.9 °F 52% 29.97 in 8.0 mi SW 10.4 mph - N/A   Clear
9:52 AM 82.0 °F 82.4 °F 60.1 °F 47% 29.97 in 9.0 mi SW 10.4 mph - N/A   Clear
10:52 AM 86.0 °F 86.1 °F 61.0 °F 43% 29.97 in 10.0 mi SW 11.5 mph - N/A   Clear
11:52 AM 89.1 °F 89.3 °F 62.1 °F 40% 29.96 in 10.0 mi South 12.7 mph - N/A   Clear
12:52 PM 91.9 °F 91.8 °F 61.0 °F 35% 29.96 in 10.0 mi South 15.0 mph 21.9 mph N/A   Clear
1:52 PM 93.9 °F 93.6 °F 60.1 °F 32% 29.94 in 10.0 mi SSW 13.8 mph - N/A   Clear
2:52 PM 95.0 °F 94.4 °F 59.0 °F 30% 29.92 in 10.0 mi SSE 16.1 mph 21.9 mph N/A   Clear
3:52 PM 96.1 °F 95.6 °F 59.0 °F 29% 29.91 in 10.0 mi SSW 11.5 mph 21.9 mph N/A   Clear
4:52 PM 95.0 °F 94.0 °F 57.9 °F 29% 29.89 in 10.0 mi South 15.0 mph - N/A   Clear
5:52 PM 95.0 °F 93.7 °F 57.0 °F 28% 29.89 in 10.0 mi South 10.4 mph - N/A   Clear
6:52 PM 93.9 °F 92.6 °F 57.0 °F 29% 29.89 in 10.0 mi South 12.7 mph - N/A   Clear
7:52 PM 88.0 °F 87.1 °F 59.0 °F 37% 29.90 in 7.0 mi SE 9.2 mph - N/A   Clear
8:52 PM 82.0 °F 82.0 °F 57.9 °F 44% 29.91 in 8.0 mi SE 10.4 mph - N/A   Clear
9:52 PM 80.1 °F 80.6 °F 57.9 °F 47% 29.93 in 9.0 mi SSE 12.7 mph - N/A   Clear
10:52 PM 80.1 °F 80.2 °F 55.9 °F 43% 29.93 in 10.0 mi SSE 11.5 mph 19.6 mph N/A   Clear
11:52 PM 75.9 °F - 57.0 °F 52% 29.93 in 10.0 mi South 9.2 mph - N/A   Clear